FDX1209 KSAV-KJAX

Flight info

Callsign FDX1209
Flight time 0h 34m
Altitude 16000
Route DCT GIPPL DCT WOPNR DCT
Aircraft A306/H-SDE3FGHIRWY/LB1

Departure

Time 2026-05-05 22:03
Airport Savannah Hilton Head International Airport (KSAV)

Arrival

Time 2026-05-05 22:37
Airport Jacksonville International Airport (KJAX)
Time Latitude Longitude Altitude Speed Heading
2026-05-05 21:38 32.13395 -81.20633 60 ft 0 kts
2026-05-05 21:59 32.13444 -81.20629 57 ft 6 kts 16°
2026-05-05 21:59 32.13454 -81.20608 58 ft 5 kts 79°
2026-05-05 21:59 32.13448 -81.20540 60 ft 9 kts 94°
2026-05-05 22:00 32.13447 -81.20472 60 ft 8 kts 91°
2026-05-05 22:00 32.13446 -81.20413 60 ft 7 kts 91°
2026-05-05 22:00 32.13452 -81.20358 58 ft 9 kts 67°
2026-05-05 22:00 32.13518 -81.20333 55 ft 11 kts
2026-05-05 22:01 32.13567 -81.20293 53 ft 8 kts 70°
2026-05-05 22:01 32.13571 -81.20225 54 ft 10 kts 89°
2026-05-05 22:01 32.13572 -81.20128 53 ft 12 kts 89°
2026-05-05 22:01 32.13571 -81.20028 51 ft 8 kts 95°
2026-05-05 22:02 32.13548 -81.20011 50 ft 5 kts 175°
2026-05-05 22:02 32.13366 -81.20011 53 ft 58 kts 180°
2026-05-05 22:02 32.12746 -81.20008 48 ft 118 kts 179°
2026-05-05 22:02 32.11755 -81.19988 145 ft 159 kts 177°
2026-05-05 22:03 32.10656 -81.19990 914 ft 156 kts 178°
2026-05-05 22:03 32.09523 -81.20012 1517 ft 176 kts 178°
2026-05-05 22:03 32.08192 -81.20024 2056 ft 205 kts 179°
2026-05-05 22:03 32.06652 -81.20028 2470 ft 236 kts 178°
2026-05-05 22:04 32.04969 -81.19985 3105 ft 247 kts 178°
2026-05-05 22:04 32.03223 -81.19905 3860 ft 256 kts 178°
2026-05-05 22:04 32.01414 -81.19796 4686 ft 263 kts 180°
2026-05-05 22:04 31.99554 -81.19683 5497 ft 271 kts 180°
2026-05-05 22:05 31.97662 -81.19571 6444 ft 273 kts 180°
2026-05-05 22:05 31.95776 -81.19463 7320 ft 276 kts 180°
2026-05-05 22:05 31.93832 -81.19358 8166 ft 283 kts 181°
2026-05-05 22:05 31.91845 -81.19257 8979 ft 289 kts 181°
2026-05-05 22:06 31.89814 -81.19154 9817 ft 296 kts 181°
2026-05-05 22:06 31.87738 -81.19039 10480 ft 301 kts 178°
2026-05-05 22:06 31.85659 -81.18534 10853 ft 308 kts 166°
2026-05-05 22:06 31.83616 -81.17706 10949 ft 316 kts 163°
2026-05-05 22:07 31.81606 -81.16852 10917 ft 295 kts 163°
2026-05-05 22:07 31.79802 -81.16076 11252 ft 257 kts 163°
2026-05-05 22:07 31.78196 -81.15376 11761 ft 241 kts 164°
2026-05-05 22:07 31.76730 -81.14758 13196 ft 203 kts 164°
2026-05-05 22:08 31.75540 -81.14226 14280 ft 169 kts 163°
2026-05-05 22:08 31.74326 -81.13674 13690 ft 228 kts 163°
2026-05-05 22:08 31.72401 -81.12886 11997 ft 345 kts 164°
2026-05-05 22:08 31.70054 -81.11987 12514 ft 352 kts 165°
2026-05-05 22:09 31.67755 -81.11131 13532 ft 345 kts 165°
2026-05-05 22:09 31.65454 -81.10308 14299 ft 342 kts 168°
2026-05-05 22:09 31.63154 -81.10030 15114 ft 327 kts 189°
2026-05-05 22:09 31.60980 -81.10711 15691 ft 325 kts 206°
2026-05-05 22:10 31.58921 -81.11913 15933 ft 337 kts 217°
2026-05-05 22:10 31.57072 -81.13684 15981 ft 351 kts 227°
2026-05-05 22:10 31.55338 -81.15739 15977 ft 368 kts 230°
2026-05-05 22:10 31.53552 -81.17986 15976 ft 383 kts 231°
2026-05-05 22:11 31.51758 -81.20281 15979 ft 380 kts 231°
2026-05-05 22:11 31.49984 -81.22564 15983 ft 377 kts 231°
2026-05-05 22:11 31.48227 -81.24836 15987 ft 376 kts 231°
2026-05-05 22:11 31.46474 -81.27107 15986 ft 376 kts 231°
2026-05-05 22:12 31.44716 -81.29387 15987 ft 376 kts 231°
2026-05-05 22:12 31.42965 -81.31659 15990 ft 376 kts 231°
2026-05-05 22:12 31.41229 -81.33908 15993 ft 376 kts 231°
2026-05-05 22:12 31.39450 -81.36211 15994 ft 376 kts 231°
2026-05-05 22:13 31.37713 -81.38460 15996 ft 377 kts 231°
2026-05-05 22:13 31.35954 -81.40736 15996 ft 377 kts 231°
2026-05-05 22:13 31.34198 -81.43009 15999 ft 377 kts 231°
2026-05-05 22:13 31.32436 -81.45286 15998 ft 377 kts 231°
2026-05-05 22:14 31.30676 -81.47560 15999 ft 377 kts 231°
2026-05-05 22:14 31.28917 -81.49830 15998 ft 377 kts 231°
2026-05-05 22:14 31.27153 -81.52108 16000 ft 377 kts 231°
2026-05-05 22:14 31.25388 -81.54384 15998 ft 377 kts 231°
2026-05-05 22:15 31.23623 -81.56658 15998 ft 377 kts 231°
2026-05-05 22:15 31.21858 -81.58930 15998 ft 377 kts 231°
2026-05-05 22:15 31.20094 -81.61201 15997 ft 377 kts 231°
2026-05-05 22:15 31.18331 -81.63469 15995 ft 377 kts 231°
2026-05-05 22:16 31.16589 -81.65709 15991 ft 377 kts 231°
2026-05-05 22:16 31.14825 -81.67976 15990 ft 377 kts 231°
2026-05-05 22:16 31.13056 -81.70248 15990 ft 377 kts 231°
2026-05-05 22:16 31.11291 -81.72513 15984 ft 377 kts 231°
2026-05-05 22:17 31.09526 -81.74775 15983 ft 377 kts 231°
2026-05-05 22:17 31.07767 -81.77030 15822 ft 375 kts 231°
2026-05-05 22:17 31.06007 -81.79285 15187 ft 376 kts 230°
2026-05-05 22:17 31.04254 -81.81529 14707 ft 372 kts 230°
2026-05-05 22:18 31.02513 -81.83754 14200 ft 369 kts 230°
2026-05-05 22:18 31.00790 -81.85958 13683 ft 366 kts 230°
2026-05-05 22:18 30.99074 -81.88150 13126 ft 364 kts 230°
2026-05-05 22:18 30.97379 -81.90312 12616 ft 360 kts 230°
2026-05-05 22:19 30.95698 -81.92458 12098 ft 356 kts 230°
2026-05-05 22:19 30.94059 -81.94550 11600 ft 353 kts 230°
2026-05-05 22:19 30.92425 -81.96631 11376 ft 341 kts 230°
2026-05-05 22:19 30.90852 -81.98631 11219 ft 329 kts 230°
2026-05-05 22:20 30.89335 -82.00564 11065 ft 317 kts 230°
2026-05-05 22:20 30.87871 -82.02426 10930 ft 306 kts 230°
2026-05-05 22:20 30.86463 -82.04220 10796 ft 295 kts 231°
2026-05-05 22:20 30.85036 -82.05893 10686 ft 287 kts 223°
2026-05-05 22:21 30.83405 -82.07196 10493 ft 283 kts 210°
2026-05-05 22:21 30.81522 -82.07872 10204 ft 286 kts 188°
2026-05-05 22:21 30.79548 -82.07524 9810 ft 294 kts 157°
2026-05-05 22:21 30.77930 -82.06125 9500 ft 294 kts 137°
2026-05-05 22:22 30.76521 -82.04408 9217 ft 291 kts 134°
2026-05-05 22:22 30.75161 -82.02673 8889 ft 289 kts 134°
2026-05-05 22:22 30.73838 -82.00986 8561 ft 288 kts 134°
2026-05-05 22:22 30.72491 -81.99280 8262 ft 283 kts 134°
2026-05-05 22:23 30.71172 -81.97610 7850 ft 274 kts 135°
2026-05-05 22:23 30.69908 -81.96014 7429 ft 263 kts 135°
2026-05-05 22:23 30.68694 -81.94481 7033 ft 253 kts 135°
2026-05-05 22:23 30.67533 -81.93021 6635 ft 246 kts 136°
2026-05-05 22:24 30.66387 -81.91585 6247 ft 239 kts 135°
2026-05-05 22:24 30.65277 -81.90193 5987 ft 231 kts 136°
2026-05-05 22:24 30.64202 -81.88841 5787 ft 225 kts 136°
2026-05-05 22:24 30.63147 -81.87519 5428 ft 220 kts 135°
2026-05-05 22:25 30.62114 -81.86224 4920 ft 218 kts 136°
2026-05-05 22:25 30.61085 -81.84935 4414 ft 216 kts 135°
2026-05-05 22:25 30.60043 -81.83705 3948 ft 211 kts 141°
2026-05-05 22:25 30.58876 -81.82711 3563 ft 206 kts 147°
2026-05-05 22:26 30.57720 -81.81757 3117 ft 203 kts 143°
2026-05-05 22:26 30.56640 -81.80725 2551 ft 202 kts 130°
2026-05-05 22:26 30.55781 -81.79423 2007 ft 201 kts 124°
2026-05-05 22:26 30.55021 -81.78145 1731 ft 186 kts 123°
2026-05-05 22:27 30.54310 -81.76980 1641 ft 169 kts 127°
2026-05-05 22:27 30.53558 -81.76000 1377 ft 155 kts 129°
2026-05-05 22:27 30.52902 -81.75093 1184 ft 141 kts 129°
2026-05-05 22:27 30.52399 -81.74402 1023 ft 137 kts 129°
2026-05-05 22:28 30.52032 -81.73900 901 ft 138 kts 129°
2026-05-05 22:28 30.51404 -81.73049 724 ft 140 kts 129°
2026-05-05 22:28 30.50776 -81.72198 537 ft 139 kts 128°
2026-05-05 22:28 30.50153 -81.71346 359 ft 139 kts 128°
2026-05-05 22:29 30.49517 -81.70474 502 ft 145 kts 126°
2026-05-05 22:29 30.48866 -81.69576 1432 ft 146 kts 129°
2026-05-05 22:29 30.48192 -81.68656 2306 ft 160 kts 130°
2026-05-05 22:29 30.47387 -81.67567 2822 ft 201 kts 130°
2026-05-05 22:30 30.46458 -81.66235 2968 ft 219 kts 129°
2026-05-05 22:30 30.45472 -81.64868 2981 ft 221 kts 139°
2026-05-05 22:30 30.44123 -81.64077 2992 ft 220 kts 170°
2026-05-05 22:30 30.42622 -81.64274 2993 ft 222 kts 202°
2026-05-05 22:31 30.41436 -81.65414 3006 ft 227 kts 236°
2026-05-05 22:31 30.40957 -81.67152 2994 ft 232 kts 268°
2026-05-05 22:31 30.41279 -81.68997 3009 ft 238 kts 289°
2026-05-05 22:31 30.41919 -81.70775 3005 ft 239 kts 293°
2026-05-05 22:32 30.42596 -81.72535 3004 ft 239 kts 293°
2026-05-05 22:32 30.43269 -81.74263 2982 ft 229 kts 293°
2026-05-05 22:32 30.43918 -81.75891 2886 ft 219 kts 297°
2026-05-05 22:32 30.44797 -81.77312 2753 ft 214 kts 310°
2026-05-05 22:33 30.45781 -81.78567 2652 ft 206 kts 313°
2026-05-05 22:33 30.46743 -81.79763 2547 ft 202 kts 313°
2026-05-05 22:33 30.47707 -81.80932 2475 ft 203 kts 321°
2026-05-05 22:33 30.48967 -81.81558 2379 ft 196 kts 359°
2026-05-05 22:34 30.50220 -81.81208 2335 ft 178 kts 32°
2026-05-05 22:34 30.51184 -81.80450 2260 ft 157 kts 41°
2026-05-05 22:34 30.52013 -81.79717 2188 ft 146 kts 43°
2026-05-05 22:34 30.52810 -81.78961 2147 ft 148 kts 50°
2026-05-05 22:35 30.53378 -81.78007 2096 ft 143 kts 74°
2026-05-05 22:35 30.53525 -81.76893 1833 ft 139 kts 94°
2026-05-05 22:35 30.53324 -81.75806 1561 ft 137 kts 112°
2026-05-05 22:35 30.52831 -81.74861 1211 ft 138 kts 128°
2026-05-05 22:36 30.52190 -81.74036 1000 ft 138 kts 131°
2026-05-05 22:36 30.51545 -81.73203 824 ft 140 kts 130°
2026-05-05 22:36 30.50904 -81.72358 616 ft 139 kts 129°
2026-05-05 22:36 30.50291 -81.71526 375 ft 136 kts 128°
2026-05-05 22:37 30.49670 -81.70694 213 ft 133 kts 128°
2026-05-05 22:37 30.49078 -81.69899 54 ft 131 kts 128°
2026-05-05 22:37 30.48550 -81.69184 40 ft 93 kts 130°
2026-05-05 22:37 30.48280 -81.68820 41 ft 39 kts 130°
2026-05-05 22:38 30.48171 -81.68672 41 ft 17 kts 130°
2026-05-05 22:38 30.48134 -81.68603 41 ft 7 kts 93°
2026-05-05 22:38 30.48160 -81.68560 41 ft 8 kts 39°
2026-05-05 22:38 30.48207 -81.68514 41 ft 9 kts 39°
2026-05-05 22:39 30.48268 -81.68512 41 ft 11 kts 318°
2026-05-05 22:39 30.48326 -81.68589 40 ft 12 kts 311°
2026-05-05 22:39 30.48379 -81.68661 39 ft 11 kts 309°
2026-05-05 22:39 30.48429 -81.68725 41 ft 10 kts 323°
2026-05-05 22:40 30.48492 -81.68742 41 ft 9 kts
2026-05-05 22:40 30.48548 -81.68731 41 ft 8 kts
2026-05-05 22:40 30.48558 -81.68729 41 ft 0 kts
2026-05-05 22:41 30.48561 -81.68729 41 ft 3 kts
2026-05-05 22:41 30.48618 -81.68717 41 ft 14 kts
2026-05-05 22:41 30.48740 -81.68691 41 ft 20 kts 11°
2026-05-05 22:42 30.48864 -81.68711 41 ft 18 kts 333°
2026-05-05 22:42 30.48968 -81.68781 41 ft 17 kts 329°
2026-05-05 22:42 30.49049 -81.68877 41 ft 20 kts 297°
2026-05-05 22:42 30.49104 -81.69019 41 ft 16 kts 278°
2026-05-05 22:43 30.49041 -81.69143 41 ft 23 kts 231°
2026-05-05 22:43 30.48942 -81.69287 41 ft 22 kts 231°
2026-05-05 22:43 30.48867 -81.69314 41 ft 14 kts 144°
2026-05-05 22:43 30.48784 -81.69205 39 ft 22 kts 130°
2026-05-05 22:44 30.48668 -81.69049 41 ft 29 kts 131°
2026-05-05 22:44 30.48536 -81.68871 41 ft 29 kts 131°
2026-05-05 22:44 30.48410 -81.68701 41 ft 27 kts 131°
2026-05-05 22:44 30.48309 -81.68565 41 ft 13 kts 127°
2026-05-05 22:45 30.48315 -81.68457 40 ft 18 kts 70°
2026-05-05 22:45 30.48357 -81.68318 41 ft 18 kts 71°
2026-05-05 22:45 30.48396 -81.68189 41 ft 16 kts 71°
2026-05-05 22:45 30.48472 -81.68133 41 ft 13 kts 11°
2026-05-05 22:46 30.48551 -81.68117 41 ft 8 kts
2026-05-05 22:46 30.48571 -81.68140 41 ft 6 kts 283°
2026-05-05 22:46 30.48578 -81.68183 41 ft 1 kts 280°
2026-05-05 22:46 30.48578 -81.68186 41 ft 0 kts 280°